Location: Newton_East
(35.6670°N, 81.2000°W)
Time: 09:42:44
(UTC-04:00)

ISS - Visible Passes

Search period start: 26 May 2015 00:00
Search period end: 05 June 2015 00:00
Orbit: 399 x 404 km, 51.6° (Epoch: 26 May)

Date Brightness Start Highest point End Pass type
(mag) Time Alt. Az. Time Alt. Az. Time Alt. Az.
27 May -0.1 05:41:06 10° N 05:42:42 13° NNE 05:44:22 10° NE visible
29 May -0.6 05:30:13 10° NNW 05:32:54 23° NNE 05:35:36 10° E visible
30 May -0.1 04:37:32 10° N 04:39:25 14° NNE 04:41:21 10° ENE visible
30 May -1.6 21:15:14 10° SSE 21:16:54 14° SE 21:18:42 10° E visible
30 May -2.2 22:49:57 10° WSW 22:53:04 44° NW 22:56:12 10° NE visible
31 May -2.3 05:19:42 10° NW 05:22:54 51° NE 05:26:05 10° ESE visible
31 May -3.5 21:56:32 10° SW 21:59:46 83° SE 22:03:01 10° NE visible
31 May 0.1 23:34:52 10° WNW 23:36:35 13° NNW 23:38:14 10° N visible
01 Jun -1.0 04:26:42 10° NNW 04:29:30 26° NNE 04:32:20 10° E visible
01 Jun -2.7 21:03:35 10° SSW 21:06:33 35° SE 21:09:33 10° ENE visible
01 Jun -0.6 22:40:28 10° W 22:43:02 21° NNW 22:45:35 10° NNE visible
02 Jun -0.1 03:33:54 10° NNW 03:36:00 16° NNE 03:38:10 10° ENE visible
02 Jun -3.3 05:09:28 10° NW 05:12:41 58° SW 05:15:53 10° SE visible
02 Jun -1.7 21:46:32 10° WSW 21:49:35 37° NW 21:52:38 10° NNE visible
03 Jun 0.4 02:41:42 10° N 02:42:24 11° NNE 02:43:11 10° NE visible
03 Jun -2.9 04:16:10 10° NW 04:19:23 61° NE 04:22:37 10° ESE visible
03 Jun 0.1 22:31:43 10° NW 22:33:07 12° NNW 22:34:27 10° N visible
04 Jun -1.4 03:23:04 10° NNW 03:28:37 12° E 03:28:56 10° E visible
04 Jun -2.1 05:02:24 21° SW 05:02:24 21° SW 05:04:50 10° S visible
04 Jun -0.3 21:37:06 10° WNW 21:39:31 19° NNW 21:41:53 10° NNE visible
